User: anonymous   Login
Location: Ocean City
(38.3360°N, 75.0850°W)
Time: 11:49:49
(UTC-04:00)
Language:

Max Valier Satellite - Orbit

View from above orbital plane
View from above orbital plane
View from above satellite
View from above satellite

Ground track
Ground track

The orbit data is extracted from the following two-line orbital elements,

1 42778U 17036P   19144.41377313  .00000631  00000-0  30642-4 0  9992
2 42778  97.3562 202.6345 0011088 319.5879  40.4533 15.21968121106398
Epoch (UTC): 24 May 2019 09:55:49
Eccentricity: 0.0011088
inclination: 97.3562°
perigee height: 492 km
apogee height: 507 km
right ascension of ascending node: 202.6345°
argument of perigee: 319.5879°
revolutions per day: 15.21968121
mean anomaly at epoch: 40.4533°
orbit number at epoch: 10639

The dashed part of the orbit path shows where the satellite is in the earth's shadow,  

DLR